Regional Weather Roundup
Issued by NWS Wakefield, VA

Home | Current Version | Previous Version | Graphics & Text | Print | Product List | Glossary On
Versions: 1 2 3 4 5 6 7 8 9 10 11 12 13 14 15 16 17 18 19 20 21 22 23 24 25 26 27 28 29 30 31 32 33 34 35 36 37 38 39 40 41 42 43 44 45 46 47 48 49 50
491
ASUS41 KAKQ 052015
RWRAKQ

REGIONAL WEATHER ROUNDUP
NATIONAL WEATHER SERVICE WAKEFIELD VA
300 PM EST MON DEC 05 2016

Note: "fair" indicates few or no clouds below 12,000 feet with no
significant weather and/or obstructions to visibility. * = Denotes
station may not report precipitation (e.g., rain,snow,etc.),
thunder or fog.

VAZ042-051-052>054-056-052100-
NORTHERN VIRGINIA

CITY           SKY/WX    TMP DP  RH WIND       PRES   REMARKS
WASH NATIONAL  PTSUNNY   56  37  49 N8        30.04R
DULLES         PTSUNNY   54  32  43 N10       30.03R
FORT BELVOIR   SUNNY     56  36  46 NW7       30.03R
QUANTICO       MOSUNNY   48  43  82 S5        30.04S
FREDERICKSBRG* SUNNY     55  43  64 CALM      30.02S
STAFFORD*      SUNNY     54  40  61 CALM      30.06S
WARRENTON      SUNNY     56  35  46 W3        30.02S
CULPEPER*      SUNNY     54  42  64 CALM      30.03F
MANASSAS*      MOSUNNY   54  43  66 CALM      30.03R
LEESBURG*      SUNNY     54  36  50 NW9       30.04R
WINCHESTER     SUNNY     50  32  50 NW10      30.03R
FRONT ROYAL*   FAIR      52  30  43 N5        30.01R
LURAY*         FAIR      55  36  47 NW6       30.01R
$$

VAZ048-049-060>072-079>083-052100-
CENTRAL AND SOUTH CENTRAL VIRGINIA

CITY           SKY/WX    TMP DP  RH WIND       PRES   REMARKS
RICHMOND       PTSUNNY   51  41  68 NE3       30.03S
CHESTERFIELD*  FAIR      52  32  46 NE5       30.04S
PETERSBURG*    SUNNY     53  42  66 NE5       30.03S
HANOVER        SUNNY     51  41  68 CALM      30.04F
TAPPAHANNOCK*  SUNNY     53  38  57 N6        30.03S
QUINTON*       FAIR      52  42  70 N7        30.02S
CHARLOTTSVILLE CLOUDY    58  37  45 VRB5      30.00S
GORDONSVILLE*  FAIR      55  43  63 E3        30.00F
ORANGE*          N/A     55  41  58 CALM      30.03F
LOUISA*        SUNNY     55  46  71 CALM      30.01S
BUMPASS*       FAIR      51  42  71 N5        30.02F
FARMVILLE*     SUNNY     59  42  52 NE5       30.01R
CREWE*         FAIR      55  42  62 E3        30.01S
FORT PICKETT*  FAIR      55  37  50 N6        30.02R
CHASE CITY*    FAIR      56  38  50 N6        30.01S
CLARKSVILLE*   FAIR      55  43  62 NW3       30.01S
SOUTH HILL*    MOSUNNY   56  43  60 NE7       30.07R
LAWRENCEVILLE* FAIR      56  42  59 CALM      30.02R
EMPORIA*       SUNNY     54  43  66 NW6       30.04R
$$

VAZ088>098-052100-
SOUTHEAST VIRGINIA

CITY           SKY/WX    TMP DP  RH WIND       PRES   REMARKS
NORFOLK        SUNNY     52  44  74 N10       30.01S
VIRGINIA BEACH PTSUNNY   51  43  74 N10       30.01R
NORFOLK NAVAL  PTSUNNY   54  44  69 N9        30.03S
WEST POINT*    SUNNY     54  40  59 N3        30.04S
SALUDA*        FAIR      51  45  80 NW3       30.02S
NEWPORT NEWS   SUNNY     55  42  61 N10       30.02S
LANGLEY AFB    MOSUNNY   54  42  64 N13       30.01R
FORT EUSTIS    SUNNY     57  41  55 N10       30.00R
WILLIAMSBURG*  SUNNY     57  45  62 CALM      30.03S
HR EXEC AP*    FAIR      55  43  62 N5        30.00S
FRANKLIN*      SUNNY     54  42  63 N6        30.02S
US460-WAKEFLD  SUNNY     53  41  63 VRB7      30.02S
$$

VAZ020-022-025-037-045-052100-
WEST CENTRAL AND SOUTHWEST VIRGINIA

CITY           SKY/WX    TMP DP  RH WIND       PRES   REMARKS
STAUNTON*      CLOUDY    54  32  43 N3        30.03R
WAYNESBORO*    FAIR      54  30  39 N8        30.00S
HOT SPRINGS VA NOT AVBL
LYNCHBURG      SUNNY     56  41  57 SE7       30.01R
DANVILLE       SUNNY     56  43  61 CALM      30.00F
SOUTH BOSTON*  FAIR      57  39  52 CALM      30.02R
MARTINSVILLE   MOSUNNY   59  37  44 CALM      30.02R
ROANOKE        SUNNY     56  33  42 NE7       30.02R
BLACKSBURG     CLOUDY    52  37  56 W3        30.02S
DUBLIN*        CLOUDY    53  38  57 N6        30.01F
MARION*        SUNNY     53  38  57 CALM      30.01F
HILLSVILLE*    CLOUDY    49  37  63 CALM      29.98S
RICHLANDS*     FAIR      48  16  27 N5        29.98F
WISE*          MOSUNNY   46  36  66 NE3       30.00S
ABINGDON*      MOSUNNY   52  40  62 E5        29.99S
$$

MDZ021>025-VAZ099-100-052100-
SOUTHERN MARYLAND AND THE DELMARVA PENINSULA

CITY           SKY/WX    TMP DP  RH WIND       PRES   REMARKS
PATUXENT RIVER MOSUNNY   51  42  71 E6        30.02S
BAY BRIDGE APT SUNNY     52  39  62 NW6       30.03R
LEONARDTOWN    SUNNY     54  37  54 NW6       30.03R
DOVER          SUNNY     52  41  67 NW10      30.00R
GEORGETOWN     MOSUNNY   51  39  63 NW6       30.01R
EASTON         MOSUNNY   54  39  58 N9G16     30.05S
CAMBRIDGE      SUNNY     50  41  71 N5        30.02S
SALISBURY      PTSUNNY   52  40  63 NW12      30.01R
OCEAN CITY     MOSUNNY   50  41  71 N8        30.01S
WALLOPS ISLAND PTSUNNY   53  42  66 N10       30.01S
ACCOMACK*      SUNNY     49  43  80 N8        30.01S
$$

NCZ012>017-030>032-052100-
NORTH CENTRAL AND EASTERN NORTH CAROLINA

CITY           SKY/WX    TMP DP  RH WIND       PRES   REMARKS
ROANOKE RAPIDS FAIR      57  45  62 N8        30.01R
RALEIGH        PTSUNNY   58  40  51 NE10      30.00S
ELIZABETH CITY MOSUNNY   56  46  69 N15       30.00R
AHOSKIE*       SUNNY     55  44  68 N10       30.02R
EDENTON*       SUNNY     58  48  69 N8        30.01R
CURRITUCK*     SUNNY     54  46  74 N9        30.01R
KILL DEVIL HLS MOSUNNY   52  49  89 N10G18    29.98R
MANTEO         MOSUNNY   53  46  79 N14G22    29.99R
CAPE HATTERAS  MOSUNNY   55  50  83 N9G18     29.97S
TARBORO*       NOT AVBL
GOLDSBORO      SUNNY     60  45  57 N8        29.97S
WASHINGTON     MOSUNNY   59  47  65 N10       30.00R
GREENVILLE     MOSUNNY   57  46  67 N7        30.01R
NEW BERN       MOSUNNY   58  48  69 N9        29.99R
WILMINGTON     CLOUDY    60  50  69 N9        29.97R
$$

VAZ048-052100-
ELSEWHERE

CITY           SKY/WX    TMP DP  RH WIND       PRES   REMARKS
HARRISBURG PA  PTSUNNY   50  34  54 NW13      30.02R
BALTIMORE      PTSUNNY   53  36  52 NW9       30.02R
ANNAPOLIS      SUNNY     55  36  48 NW7       30.03R
ANDREWS AFB    SUNNY     53  34  48 N9        30.02R
PHILADELPHIA   PTSUNNY   50  34  54 NW13      30.01S
HENDERSON NC   SUNNY     53  37  56 N7        30.00F
GREENSBORO     PTSUNNY   58  42  55 N6        29.99S
ROCKY MOUNT    SUNNY     59  45  59 N12       30.00R
$$

VAZ100-052100-
MARINE

STATION/POSITION TIME  TEMP    WIND        PRES    WAVE   SWELL
                       AIR SEA DIR/SP/G            HT/PER HT/PER
                 (UTC) (F)     (DEG/KT/KT) (MB)    (FT/S) (FT/S)
BRANDYWINE LGT   1942   47     330/  5/  7   N/A
CAPE MAY NJ      1942   47 48  300/  8/ 10 1015.8R
LEWES DE         1942   48 49   10/  7/  8 1016.2R
OCEAN-CITY-INLET 1942   51 51  360/ 11/ 14 1016.4R
WACHAPREAGUE VA  1942   50 50  360/  5/  9 1016.1F
THOMAS POINT MD  2000   49 49   80/  4/  4   N/A
GOOSES REEF MD   2000   49 50  140/  4/  4 1017.4    0
COVE POINT MD    1942   48      50/  3/  4 1017.2R
SOLOMONS ISLAND  1942   48 51   80/  8/  8   N/A
BISHOPS HEAD MD  1942   51 47  340/  7/ 11 1016.8F
PINEY POINT MD   1942          320/  6/  7   N/A
POTOMAC MD       2000   50 51   CALM  /  2 1015.7    1
CAMBRIDGE MD     1942   49 47  320/  4/  5 1015.7F
LEWISETTA VA     1942   51 48  360/  5/  8 1016.3S
RAPPAHANNOCK LGT 1942           10/ 11/ 12 1016.9F
STINGRAY PT      2000   49      60/ 10/ 10 1017.0    1/ 2
YORK RVR RNG VA  1942   51     360/ 10/ 11 1015.8F
YORKTOWN VA      1942   51 52  330/  8/ 10 1016.0F
JAMESTOWN VA     2000   53 53  340/  4/  8   N/A     0
DOMINION TERM VA 1942   54      10/ 10/ 13 1016.4R
KIPTOPEKE VA     1942      52  360/ 10/ 14   N/A
CHES BAY BRIDGE  1942   49 54  360/ 10/ 11 1016.1F
CAPE HENRY VA    1942   48     340/ 12/ 15   N/A
WILLOUBY STN VA  1942   52     360/ 14/ 16 1017.0F
S CRANEY ISL VA  1942   52      10/ 13/ 16 1015.9F
CAPE HENRY BUOY  1942      56                N/A     3/ 3
1ST LANDING BUOY 2000   50 54              1016.4    2/ 3
CAPE CHARLES BUO 1956      56                N/A     3/ 9
OFFSHORE WE BUOY 1951      56                N/A     4/ 4
64NM E OF VA BCH 1950   53 60  350/ 23/ 27 1014.2R   5/ 5   2/ 8
DUCK PIER NC     1942   50 54  350/ 21/ 25 1014.8R
44100 DUCK FRF   1935      56                N/A     5/ 5
OREGON INLET NC  1942   53 55  350/ 14/ 21 1014.9R
HATTERAS NC      1942   54 60   10/ 17/ 20 1014.3S
DIAMOND SHLS NC  1950   58 72   10/ 19/ 23 1014.1R   6/ 7   3/15
CAPE LOOKOUT NC  2000   56      10/ 13/ 16 1014.5S
$$




USA.gov is the U.S. government's official web portal to all federal, state and local government web resources and services.